星链-35264(STARLINK-35264)

导读

STARLINK-35264是美国于2025年10月7日发射的星链系列卫星,归属SpaceX星链星座网络。星链项目旨在构建全球卫星互联网覆盖系统,为偏远地区、海洋等场景提供高速宽带接入服务,该卫星入轨后将与其他星链卫星协同工作,补充扩展星座的服务覆盖范围与网络容量,推动全球卫星互联服务的进一步落地。

基本信息
目录编号:
65900
目录名称:
STARLINK-35264
国际标识:
2025-224U
轨道中心:
EARTH
卫星名称:
星链-35264
卫星全名:
星链-35264(STARLINK-35264)
卫星状态:
在轨 (已飞行332 天)
发射日期:
2025-10-07 UTC
国别 :
美国 (US)
星等 :
--
轨道信息
数据来源 国际轨道数据
星历时间: 2026-09-03T20:58:30+0800
21小时前
查看轨道信息
半长轴: 6840.834km
偏心率: 0.0001115
轨道倾角: 53.157°
近地点辐角 110.060°
升交点赤经 261.019°
平近点角 250.052°
近地点: 461.934km
远地点: 463.46km
周期: 93.848分钟
每日圈数: 15.344021
详细信息
固有亮度:
5
最大亮度:
2.5
卫星平台:
Starlink V1.0
覆盖范围:
全球
运营商:
太空探索技术公司
运营商所在国:
美国
制造商(研发单位):
太空探索技术公司
制造商所在国:
美国
使用方式:
暂无
卫星简介
Starlink 计划是 SpaceX 推出的全球卫星互联网项目,通过发射低轨道卫星,为全球尤其是偏远地区提供高速、低延迟的互联网服务。自 2019 年起,Starlink 已部署数千颗卫星,旨在缩小全球数字鸿沟,推动互联网普及。该项目还为军事、航空等行业提供通信支持,带来广泛经济效益。
2D轨道图
3D轨道图
轨道高度分析图
轨道倾角分析图
轨道综合分析图
查看轨道综合分析图
交会数据列表
事件ID 空间交会对象 最接近时刻(TCA) 交会距离 交会风险概率(CRP) 交会风险指数(CRI) 操作
CDM_260905-004406-489106-590021
OBJECT R (64891)
2026-09-05T
00:44:06+0000
2.431 km
极远距离
1.198811E-6 低风险 0.37
CDM_260905-223405-301906-590022
2026-09-05T
22:34:50+0000
2.894 km
极远距离
1.085131E-6 低风险 0.36
CDM_260831-105806-307106-590021
2026-08-31T
10:58:16+0000
2.881 km
极远距离
6.956814E-7 极低风险 0.32